Darstellungsparameter: Aktuell verwendete Einstellungen:
Skalierung der Graphiken ... ?
xyx+y,   Skalierungsfaktor:      Skalierung: Modus: x, Faktor: 1
Darstellungszeitraum ... ?
Vom - - bis: - -   Zeitraum: 08.05.2021 - 08.05.2021
Min/Max/Avg-Anzeige ... ?
Zeige MMA aktuell
Zeige MMA Monat
Zeige MMA alles
Zeige --A aktuell
Zeige --A Monat
Zeige --A alles
Keine MMA-Anzeige
MMA:
Keine MMA-Graphiken
MMA-Basis: 08.05.2021 - 08.05.2021
Quicknavigation für Darstellung... ?
Tage:      1T, 2T, 3T, 5T -1T -2T -3T -5T +1T +2T +3T +5T
Wochen: 1W, 2W, 3W -1W -2W -3W +1W +2W +3W
Monate: 1M, 3M, 6M -1M -3M -6M +1M +3M +6M
Jahre:    1J, 3J, 5J, 10J -1J -3J -5J -10J +1J +3J +5J +10J
Nutze für die Darstellung ... ?
Originaldaten oder Mittelwerte auf ...
Stundenbasis Tagesbasis Wochenbasis
Monatsbasis Jahresbasis      Datenbasis: Original-Daten
Darstellen als:
Statistik (Auto) Statistik J:M      Darstellung:

Der gewünschte Datumsbereich war nicht gültig/verfügbar und wurde korrigiert....
Das angegebene Enddatum (10.09.2022 23:59:59) liegt in der Zukunft.
Das angegebene Startdatum (11.08.2022 00:00:00) liegt in der Zukunft.


Zur Graphik,    zurück zur Übersicht aller Sensoren.
 
Tabellarische Datenbersicht: ?
 
Sensor: Nr:Datum:Temp:Feuchte:Taupunkt:
Aussen-T/F 1 08-05-2021 02:00:00 3.2 C 90 % 1.72 C
2 08-05-2021 02:05:00 3.1 C 90 % 1.62 C
3 08-05-2021 02:10:00 3 C 89 % 1.37 C
4 08-05-2021 02:15:00 2.9 C 90 % 1.43 C
5 08-05-2021 02:20:00 2.8 C 90 % 1.33 C
6 08-05-2021 02:25:00 2.7 C 90 % 1.23 C
7 08-05-2021 02:30:00 2.7 C 90 % 1.23 C
8 08-05-2021 02:35:00 2.7 C 91 % 1.38 C
9 08-05-2021 02:40:00 2.8 C 90 % 1.33 C
10 08-05-2021 02:45:00 2.7 C 90 % 1.23 C
11 08-05-2021 02:50:00 2.6 C 90 % 1.13 C
12 08-05-2021 02:55:00 2.4 C 90 % 0.93 C
13 08-05-2021 03:00:00 2.3 C 90 % 0.83 C
14 08-05-2021 03:05:00 2.3 C 90 % 0.83 C
15 08-05-2021 03:10:00 2.2 C 90 % 0.73 C
16 08-05-2021 03:15:00 2.1 C 90 % 0.64 C
17 08-05-2021 03:20:00 2.1 C 91 % 0.79 C
18 08-05-2021 03:25:00 1.9 C 91 % 0.59 C
19 08-05-2021 03:30:00 1.9 C 91 % 0.59 C
20 08-05-2021 03:35:00 1.8 C 91 % 0.49 C
21 08-05-2021 03:40:00 1.8 C 91 % 0.49 C
22 08-05-2021 03:45:00 1.7 C 91 % 0.39 C
23 08-05-2021 03:50:00 1.7 C 91 % 0.39 C
24 08-05-2021 03:55:00 1.6 C 91 % 0.29 C
25 08-05-2021 04:00:00 1.6 C 92 % 0.44 C
Sensor: Nr:Datum:Temp:Feuchte:Taupunkt:
Aussen-T/F 26 08-05-2021 04:05:00 1.6 C 92 % 0.44 C
27 08-05-2021 04:10:00 1.6 C 92 % 0.44 C
28 08-05-2021 04:15:00 1.5 C 92 % 0.35 C
29 08-05-2021 04:20:00 1.4 C 92 % 0.25 C
30 08-05-2021 04:25:00 1.4 C 92 % 0.25 C
31 08-05-2021 04:30:00 1.3 C 92 % 0.15 C
32 08-05-2021 04:35:00 1.3 C 92 % 0.15 C
33 08-05-2021 04:40:00 1.3 C 92 % 0.15 C
34 08-05-2021 04:45:00 1.3 C 92 % 0.15 C
35 08-05-2021 04:50:00 1.3 C 93 % 0.3 C
36 08-05-2021 04:55:00 1.3 C 93 % 0.3 C
37 08-05-2021 05:00:00 1.2 C 92 % 0.05 C
38 08-05-2021 05:05:00 1.2 C 92 % 0.05 C
39 08-05-2021 05:10:00 1.2 C 93 % 0.2 C
40 08-05-2021 05:15:00 1.1 C 93 % 0.1 C
41 08-05-2021 05:20:00 1.1 C 93 % 0.1 C
42 08-05-2021 05:25:00 1 C 93 % 0 C
43 08-05-2021 05:30:00 1 C 93 % 0 C
44 08-05-2021 05:35:00 1 C 93 % 0 C
45 08-05-2021 05:40:00 0.9 C 93 % -0.1 C
46 08-05-2021 05:45:00 0.9 C 93 % -0.1 C
47 08-05-2021 05:50:00 0.8 C 93 % -0.2 C
48 08-05-2021 05:55:00 0.8 C 93 % -0.2 C
49 08-05-2021 06:00:00 0.8 C 93 % -0.2 C
50 08-05-2021 06:05:00 0.8 C 93 % -0.2 C
Sensor: Nr:Datum:Temp:Feuchte:Taupunkt:
Aussen-T/F 51 08-05-2021 06:10:00 0.7 C 93 % -0.3 C
52 08-05-2021 06:15:00 0.7 C 93 % -0.3 C
53 08-05-2021 06:20:00 0.7 C 93 % -0.3 C
54 08-05-2021 06:25:00 0.7 C 93 % -0.3 C
55 08-05-2021 06:30:00 0.7 C 93 % -0.3 C
56 08-05-2021 06:35:00 0.7 C 94 % -0.15 C
57 08-05-2021 06:40:00 0.7 C 94 % -0.15 C
58 08-05-2021 06:45:00 0.8 C 94 % -0.05 C
59 08-05-2021 06:50:00 0.8 C 94 % -0.05 C
60 08-05-2021 06:55:00 0.9 C 94 % 0.05 C
61 08-05-2021 07:00:00 1 C 94 % 0.15 C
62 08-05-2021 07:05:00 1.2 C 94 % 0.34 C
63 08-05-2021 07:10:00 1.2 C 95 % 0.49 C
64 08-05-2021 07:15:00 1.2 C 94 % 0.34 C
65 08-05-2021 07:20:00 1.3 C 94 % 0.44 C
66 08-05-2021 07:25:00 1.3 C 94 % 0.44 C
67 08-05-2021 07:30:00 1.3 C 94 % 0.44 C
68 08-05-2021 07:35:00 1.4 C 94 % 0.54 C
69 08-05-2021 07:40:00 1.4 C 94 % 0.54 C
70 08-05-2021 07:45:00 1.6 C 95 % 0.89 C
71 08-05-2021 07:50:00 1.7 C 95 % 0.99 C
72 08-05-2021 07:55:00 1.9 C 95 % 1.19 C
73 08-05-2021 08:00:00 2.1 C 95 % 1.38 C
74 08-05-2021 08:05:00 2.2 C 95 % 1.48 C
75 08-05-2021 08:10:00 2.4 C 95 % 1.68 C
Sensor: Nr:Datum:Temp:Feuchte:Taupunkt:
Aussen-T/F 76 08-05-2021 08:15:00 2.6 C 95 % 1.88 C
77 08-05-2021 08:20:00 2.8 C 95 % 2.08 C
78 08-05-2021 08:25:00 2.9 C 96 % 2.33 C
79 08-05-2021 08:30:00 3.1 C 95 % 2.38 C
80 08-05-2021 08:35:00 3.3 C 96 % 2.72 C
81 08-05-2021 08:40:00 3.6 C 96 % 3.02 C
82 08-05-2021 08:45:00 3.8 C 96 % 3.22 C
83 08-05-2021 08:50:00 4 C 96 % 3.42 C
84 08-05-2021 08:55:00 4.2 C 96 % 3.62 C
85 08-05-2021 09:00:00 4.4 C 96 % 3.82 C
86 08-05-2021 09:05:00 4.7 C 95 % 3.97 C
87 08-05-2021 09:10:00 4.9 C 95 % 4.17 C
88 08-05-2021 09:15:00 5.2 C 95 % 4.47 C
89 08-05-2021 09:20:00 5.4 C 95 % 4.66 C
90 08-05-2021 09:25:00 5.7 C 94 % 4.81 C
91 08-05-2021 09:30:00 6.1 C 93 % 5.06 C
92 08-05-2021 09:35:00 6.4 C 91 % 5.04 C
93 08-05-2021 09:40:00 6.7 C 89 % 5.02 C
94 08-05-2021 09:45:00 7 C 87 % 4.99 C
95 08-05-2021 09:50:00 7.3 C 85 % 4.95 C
96 08-05-2021 09:55:00 7.7 C 84 % 5.17 C
97 08-05-2021 10:00:00 8 C 81 % 4.94 C
98 08-05-2021 10:05:00 8.3 C 80 % 5.06 C
99 08-05-2021 10:10:00 8.6 C 79 % 5.17 C
100 08-05-2021 10:15:00 8.8 C 77 % 5 C
Sensor: Nr:Datum:Temp:Feuchte:Taupunkt:
Aussen-T/F 101 08-05-2021 10:20:00 9.1 C 78 % 5.47 C
102 08-05-2021 10:25:00 9.3 C 76 % 5.29 C
103 08-05-2021 10:30:00 9.6 C 75 % 5.39 C
104 08-05-2021 10:35:00 9.8 C 75 % 5.59 C
105 08-05-2021 10:40:00 9.9 C 74 % 5.49 C
106 08-05-2021 10:45:00 10.2 C 74 % 5.78 C
107 08-05-2021 10:50:00 10.4 C 73 % 5.78 C
108 08-05-2021 10:55:00 10.8 C 73 % 6.16 C
109 08-05-2021 11:00:00 11.3 C 70 % 6.03 C
110 08-05-2021 11:05:00 11.6 C 69 % 6.11 C
111 08-05-2021 11:10:00 11.9 C 66 % 5.76 C
112 08-05-2021 11:15:00 12.3 C 61 % 5.01 C
113 08-05-2021 11:20:00 12.7 C 58 % 4.66 C
114 08-05-2021 11:25:00 13.2 C 57 % 4.88 C
115 08-05-2021 11:30:00 13.7 C 55 % 4.83 C
116 08-05-2021 11:35:00 13.8 C 51 % 3.85 C
117 08-05-2021 11:40:00 14 C 51 % 4.04 C
118 08-05-2021 11:45:00 14.2 C 53 % 4.77 C
119 08-05-2021 11:50:00 14.4 C 52 % 4.68 C
120 08-05-2021 11:55:00 14.6 C 51 % 4.59 C
121 08-05-2021 12:00:00 14.6 C 49 % 4.02 C
122 08-05-2021 12:05:00 14.7 C 53 % 5.23 C
123 08-05-2021 12:10:00 14.8 C 51 % 4.77 C
124 08-05-2021 12:15:00 14.9 C 46 % 3.4 C
125 08-05-2021 12:20:00 15.1 C 48 % 4.18 C
Sensor: Nr:Datum:Temp:Feuchte:Taupunkt:
Aussen-T/F 126 08-05-2021 12:25:00 15.1 C 47 % 3.88 C
127 08-05-2021 12:30:00 15.2 C 46 % 3.67 C
128 08-05-2021 12:35:00 15.4 C 46 % 3.85 C
129 08-05-2021 12:40:00 15.5 C 46 % 3.94 C
130 08-05-2021 12:45:00 15.6 C 43 % 3.08 C
131 08-05-2021 12:50:00 15.7 C 46 % 4.13 C
132 08-05-2021 12:55:00 15.8 C 46 % 4.22 C
133 08-05-2021 13:00:00 15.9 C 44 % 3.68 C
134 08-05-2021 13:05:00 16.1 C 48 % 5.1 C
135 08-05-2021 13:10:00 15.9 C 45 % 4 C
136 08-05-2021 13:15:00 15.9 C 46 % 4.31 C
137 08-05-2021 13:20:00 15.8 C 44 % 3.59 C
138 08-05-2021 13:25:00 15.9 C 44 % 3.68 C
139 08-05-2021 13:30:00 16 C 46 % 4.4 C
140 08-05-2021 13:35:00 16.2 C 45 % 4.27 C
141 08-05-2021 13:40:00 16.2 C 44 % 3.95 C
142 08-05-2021 13:45:00 16.2 C 45 % 4.27 C
143 08-05-2021 13:50:00 16.3 C 46 % 4.67 C
144 08-05-2021 13:55:00 16.4 C 44 % 4.13 C
145 08-05-2021 14:00:00 16.4 C 46 % 4.76 C
146 08-05-2021 14:05:00 16.6 C 45 % 4.63 C
147 08-05-2021 14:10:00 16.7 C 45 % 4.72 C
148 08-05-2021 14:15:00 16.8 C 45 % 4.81 C
149 08-05-2021 14:20:00 16.7 C 47 % 5.34 C
150 08-05-2021 14:25:00 16.8 C 46 % 5.13 C
Sensor: Nr:Datum:Temp:Feuchte:Taupunkt:
Aussen-T/F 151 08-05-2021 14:30:00 16.8 C 47 % 5.44 C
152 08-05-2021 14:35:00 16.9 C 46 % 5.22 C
153 08-05-2021 14:40:00 16.9 C 46 % 5.22 C
154 08-05-2021 14:45:00 16.9 C 45 % 4.9 C
155 08-05-2021 14:50:00 17.1 C 46 % 5.4 C
156 08-05-2021 14:55:00 17.1 C 45 % 5.08 C
157 08-05-2021 15:00:00 17.1 C 46 % 5.4 C
158 08-05-2021 15:05:00 17.1 C 47 % 5.71 C
159 08-05-2021 15:10:00 17.2 C 46 % 5.49 C
160 08-05-2021 15:15:00 17.2 C 47 % 5.8 C
161 08-05-2021 15:20:00 17.1 C 48 % 6.01 C
162 08-05-2021 15:25:00 16.9 C 47 % 5.53 C
163 08-05-2021 15:30:00 16.8 C 49 % 6.04 C
164 08-05-2021 15:35:00 16.7 C 48 % 5.65 C
165 08-05-2021 15:40:00 16.8 C 49 % 6.04 C
166 08-05-2021 15:45:00 16.9 C 47 % 5.53 C
167 08-05-2021 15:50:00 17 C 49 % 6.22 C
168 08-05-2021 15:55:00 17 C 48 % 5.92 C
169 08-05-2021 16:00:00 17.1 C 48 % 6.01 C
170 08-05-2021 16:05:00 16.9 C 47 % 5.53 C
171 08-05-2021 16:10:00 16.9 C 49 % 6.13 C
172 08-05-2021 16:15:00 16.9 C 49 % 6.13 C
173 08-05-2021 16:20:00 16.8 C 50 % 6.33 C
174 08-05-2021 16:25:00 16.8 C 49 % 6.04 C
175 08-05-2021 16:30:00 16.8 C 51 % 6.62 C
Sensor: Nr:Datum:Temp:Feuchte:Taupunkt:
Aussen-T/F 176 08-05-2021 16:35:00 16.8 C 51 % 6.62 C
177 08-05-2021 16:40:00 16.9 C 51 % 6.71 C
178 08-05-2021 16:45:00 17 C 49 % 6.22 C
179 08-05-2021 16:50:00 17.1 C 49 % 6.31 C
180 08-05-2021 16:55:00 17.2 C 51 % 6.98 C
181 08-05-2021 17:00:00 17.2 C 50 % 6.7 C
182 08-05-2021 17:05:00 17.3 C 50 % 6.79 C
183 08-05-2021 17:10:00 17.3 C 50 % 6.79 C
184 08-05-2021 17:15:00 17.4 C 51 % 7.17 C
185 08-05-2021 17:20:00 17.5 C 51 % 7.26 C
186 08-05-2021 17:25:00 17.6 C 51 % 7.35 C
187 08-05-2021 17:30:00 17.6 C 51 % 7.35 C
188 08-05-2021 17:35:00 17.6 C 51 % 7.35 C
189 08-05-2021 17:40:00 17.6 C 51 % 7.35 C
190 08-05-2021 17:45:00 17.6 C 51 % 7.35 C
191 08-05-2021 17:50:00 17.8 C 50 % 7.25 C
192 08-05-2021 17:55:00 18 C 50 % 7.43 C
193 08-05-2021 18:00:00 18.2 C 50 % 7.62 C
194 08-05-2021 18:05:00 18.3 C 51 % 8 C
195 08-05-2021 18:10:00 18.3 C 51 % 8 C
196 08-05-2021 18:15:00 18.4 C 50 % 7.8 C
197 08-05-2021 18:20:00 18.6 C 52 % 8.56 C
198 08-05-2021 18:25:00 18.7 C 50 % 8.08 C
199 08-05-2021 18:30:00 18.7 C 52 % 8.65 C
200 08-05-2021 18:35:00 18.8 C 50 % 8.17 C
Sensor: Nr:Datum:Temp:Feuchte:Taupunkt:
Aussen-T/F 201 08-05-2021 18:40:00 18.9 C 51 % 8.55 C
202 08-05-2021 18:45:00 18.8 C 52 % 8.75 C
203 08-05-2021 18:50:00 18.7 C 49 % 7.78 C
204 08-05-2021 18:55:00 18.6 C 54 % 9.12 C
205 08-05-2021 19:00:00 18.5 C 52 % 8.47 C
206 08-05-2021 19:05:00 18.4 C 51 % 8.09 C
207 08-05-2021 19:10:00 18.3 C 51 % 8 C
208 08-05-2021 19:15:00 18.3 C 56 % 9.38 C
209 08-05-2021 19:20:00 18.3 C 52 % 8.28 C
210 08-05-2021 19:25:00 18.3 C 58 % 9.9 C
211 08-05-2021 19:30:00 18.2 C 55 % 9.02 C
212 08-05-2021 19:35:00 18.1 C 58 % 9.71 C
213 08-05-2021 19:40:00 18.1 C 61 % 10.47 C
214 08-05-2021 19:45:00 17.8 C 61 % 10.18 C
215 08-05-2021 19:50:00 17.4 C 61 % 9.81 C
216 08-05-2021 19:55:00 17.2 C 64 % 10.34 C
217 08-05-2021 20:00:00 16.8 C 64 % 9.96 C
218 08-05-2021 20:05:00 16.5 C 65 % 9.9 C
219 08-05-2021 20:10:00 16.2 C 67 % 10.07 C
220 08-05-2021 20:15:00 15.8 C 68 % 9.91 C
221 08-05-2021 20:20:00 15.5 C 69 % 9.84 C
222 08-05-2021 20:25:00 15.3 C 69 % 9.65 C
223 08-05-2021 20:30:00 15 C 71 % 9.79 C
224 08-05-2021 20:35:00 14.8 C 71 % 9.6 C
225 08-05-2021 20:40:00 14.6 C 72 % 9.61 C
Sensor: Nr:Datum:Temp:Feuchte:Taupunkt:
Aussen-T/F 226 08-05-2021 20:45:00 14.4 C 73 % 9.63 C
227 08-05-2021 20:50:00 14.3 C 73 % 9.53 C
228 08-05-2021 20:55:00 14.2 C 74 % 9.64 C
229 08-05-2021 21:00:00 14.1 C 74 % 9.54 C
230 08-05-2021 21:05:00 14 C 75 % 9.64 C
231 08-05-2021 21:10:00 13.9 C 75 % 9.55 C
232 08-05-2021 21:15:00 13.9 C 75 % 9.55 C
233 08-05-2021 21:20:00 13.8 C 75 % 9.45 C
234 08-05-2021 21:25:00 13.8 C 76 % 9.65 C
235 08-05-2021 21:30:00 13.7 C 76 % 9.55 C
236 08-05-2021 21:35:00 13.7 C 77 % 9.75 C
237 08-05-2021 21:40:00 13.6 C 76 % 9.45 C
238 08-05-2021 21:45:00 13.6 C 77 % 9.65 C
239 08-05-2021 21:50:00 13.6 C 77 % 9.65 C
240 08-05-2021 21:55:00 13.5 C 77 % 9.55 C
241 08-05-2021 22:00:00 13.4 C 77 % 9.45 C
242 08-05-2021 22:05:00 13.4 C 77 % 9.45 C
243 08-05-2021 22:10:00 13.4 C 77 % 9.45 C
244 08-05-2021 22:15:00 13.3 C 77 % 9.36 C
245 08-05-2021 22:20:00 13.3 C 77 % 9.36 C
246 08-05-2021 22:25:00 13.2 C 77 % 9.26 C
247 08-05-2021 22:30:00 13.1 C 77 % 9.16 C
248 08-05-2021 22:35:00 13 C 78 % 9.26 C
249 08-05-2021 22:40:00 12.9 C 78 % 9.16 C
250 08-05-2021 22:45:00 12.9 C 78 % 9.16 C
Sensor: Nr:Datum:Temp:Feuchte:Taupunkt:
Aussen-T/F 251 08-05-2021 22:50:00 12.8 C 78 % 9.06 C
252 08-05-2021 22:55:00 12.8 C 78 % 9.06 C
253 08-05-2021 23:00:00 12.7 C 78 % 8.97 C
254 08-05-2021 23:05:00 12.6 C 79 % 9.06 C
255 08-05-2021 23:10:00 12.4 C 79 % 8.86 C
256 08-05-2021 23:15:00 12.3 C 79 % 8.77 C
257 08-05-2021 23:20:00 12.3 C 80 % 8.95 C
258 08-05-2021 23:25:00 12.2 C 80 % 8.86 C
259 08-05-2021 23:30:00 12.1 C 81 % 8.94 C
260 08-05-2021 23:35:00 12 C 81 % 8.84 C
261 08-05-2021 23:40:00 11.9 C 81 % 8.75 C
262 08-05-2021 23:45:00 11.8 C 81 % 8.65 C
263 08-05-2021 23:50:00 11.7 C 82 % 8.73 C
264 08-05-2021 23:55:00 11.7 C 82 % 8.73 C

Legende:
   Min
   Max


Maximal/Minimal-Werte vom 08.05.2021 - 08.05.2021

Sensor Min Max Avg
Temp
(Aussen-T/F)
0.7 °C
08-05-2021  06:10:00
18.9 °C
08-05-2021  18:40:00
10.52 °C
Feuchte
(Aussen-T/F)
43 %
08-05-2021  12:45:00
96 %
08-05-2021  08:25:00
71.42 %
Taupunkt
(Aussen-T/F)
-0.3 C
08-05-2021  06:10:00
10.47 C
08-05-2021  19:40:00
4.87 C

Die Daten stammen von einer Davis Vantage Pro 2 Wetter-Station und werden unter Linux mit der Software wview2wettercgi und aufbereitet. Alle Angaben erfolgen ohne Gewähr für ihre Vollständigkeit oder Richtigkeit.
Kontakt: Rainer Krienke krienke@uni-koblenz.de . Meine Webseiten an der Uni Koblenz oder privat.
Version: $Revision: 0.78 $